Regional Weather Roundup
Issued by NWS

Home | Current Version | Previous Version | Text Only | Print | Product List | Glossary Off
Versions: 1 2 3 4 5 6 7 8 9 10 11 12 13 14 15 16 17 18 19 20 21 22 23 24 25 26 27

000
ASUS45 KCYS 042210
RWRWY

WYOMING REGIONAL WEATHER ROUNDUP
NATIONAL WEATHER SERVICE CHEYENNE WY
400 PM MDT WED MAY 04 2016

NOTE:  "FAIR" INDICATES FEW OR NO CLOUDS BELOW 12,000 FEET
WITH NO SIGNIFICANT WEATHER AND/OR OBSTRUCTIONS TO VISIBILITY.

WYZ001-042300-
YELLOWSTONE NATIONAL PARK

CITY           SKY/WX    TMP DP  RH WIND       PRES   REMARKS
LK YELLOWSTONE   N/A     59  24  26 VRB5      30.23F
W YELLOWSTONE  NOT AVBL

$$
WYZ002>013-054>058-071-098>099-042300-
NORTHERN WYOMING

CITY           SKY/WX    TMP DP  RH WIND       PRES   REMARKS
JACKSON        SUNNY     72  21  15 S7G17     30.14F
CODY           FAIR      79  28  15 SE8G18    30.02F
GREYBULL       FAIR      81  20  10 VRB7      29.98F
WORLAND        FAIR      80  28  15 S3        30.00F
SHERIDAN       FAIR      80  36  20 SE8       29.99F
BUFFALO        FAIR      77  36  22 E9        30.05F
GILLETTE       FAIR      77  34  21 W6        30.04F
HULETT         FAIR      77  36  22 S3        30.06F
NEWCASTLE      FAIR      72  32  23 SE5       30.09F

$$
WYZ014>020-022>026-101>103-042300-
CENTRAL WYOMING

CITY           SKY/WX    TMP DP  RH WIND       PRES   REMARKS
BIG PINEY      FAIR      69  20  15 S14G21    30.18F
PINEDALE       FAIR      68  18  14 S14G20    30.19F
DUBOIS         FAIR      64  14  14 S5        30.16F
LANDER         FAIR      75  31  19 VRB3      30.07F
RIVERTON       FAIR      75  32  20 S7        30.09F
CASPER         FAIR      75  28  17 W8G22     30.10F
DOUGLAS        FAIR      74  36  25 SE6       30.10F

$$
WYZ021-027>030-104>119-042300-
SOUTHERN WYOMING

CITY           SKY/WX    TMP DP  RH WIND       PRES   REMARKS
EVANSTON       PTSUNNY   71  26  18 SW17G26   30.17F
KEMMERER         N/A     70  19  14 S7        30.19F
FORT BRIDGER   CLEAR     72  21  15 SE7       30.20F
ROCK SPRINGS   FAIR      68  23  18 SW6       30.17F
DIXON          FAIR      72  27  18 SW7       30.22F
RAWLINS        FAIR      71  19  14 S12G17    30.20F
SARATOGA       FAIR      70  19  14 NW7G17    30.22F
LARAMIE        FAIR      65  26  23 VRB3      30.23F
CHEYENNE       FAIR      71  26  18 W8        30.18F
TORRINGTON     FAIR      74  37  26 S6G16     30.09F
PINE BLUFFS    FAIR      72  32  23 NE6       30.15F

$$




USA.gov is the U.S. government's official web portal to all federal, state and local government web resources and services.